Home > Weather > Drummondville > Past weeks

Flag for Canada Weather for the Past 2 Weeks in Drummondville, Quebec, Canada

Now
55 °F

Cool.


Feels Like: 53 °F
Forecast: 31 / 54 °F
Wind: 7 mph from Southwest

Location: Nicolet

Current Time: Apr 30, 2016 at 3:43:52 PM

Latest Report: Apr 30, 2016 at 3:00 PM


Visibility: N/A

Pressure: 30.22 "Hg

Humidity: 23%

Dew Point: 17 °F

Location of DrummondvilleLocation

Historic Weather in Drummondville — Graph

°F

Drummondville Temperature Yesterday

Maximum temperature yesterday: 50 °F (at 6:00 PM)
Minimum temperature yesterday: 29 °F (at 5:00 AM)
Average temperature yesterday: 39 °F

High & Low Weather Summary for the Past Weeks

 TemperatureHumidityPressure
High68 °F (Apr 17, 5:00 PM)100% (Apr 22, 12:00 PM)30.61 "Hg (Apr 22, 12:00 PM)
Low26 °F (Apr 27, 6:00 AM)15% (Apr 16, 4:00 PM)29.75 "Hg (Apr 22, 1:00 PM)
Average43 °F45%30.13 "Hg
* Reported Apr 15 2:00 PM — Apr 30 2:00 PM, Drummondville, Weather by CustomWeather, © 2016

Note: Actual official high and low records may vary slightly from our data, if they occured in-between our weather recording intervals... More about our weather records

Advertising

Drummondville Weather History for the Previous 24 Hours

Scroll right to see more
 ConditionsComfort  
Time TempWeatherWind HumidityBarometerVisibility
2:00 PM
Sat, Apr 30
53 °FCool.7 mph27%30.24 "HgN/A
1:00 PM52 °FCool.8 mph36%30.25 "HgN/A
12:00 PM51 °FCool.7 mph22%30.27 "HgN/A
11:00 AM49 °FCool.7 mph24%30.28 "HgN/A
10:00 AM46 °FCool.7 mph25%30.28 "HgN/A
9:00 AM44 °FQuite cool.7 mph31%30.28 "HgN/A
8:00 AM41 °FQuite cool.7 mph34%30.28 "HgN/A
7:00 AM38 °FChilly.6 mph40%30.26 "HgN/A
6:00 AM35 °FChilly.5 mph46%30.24 "HgN/A
5:00 AM36 °FChilly.3 mph44%30.22 "HgN/A
4:00 AM36 °FChilly.3 mph49%30.22 "HgN/A
3:00 AM37 °FChilly.3 mph46%30.22 "HgN/A
2:00 AM38 °FChilly.6 mph43%30.21 "HgN/A
1:00 AM39 °FChilly.5 mph45%30.21 "HgN/A
12:00 AM41 °FQuite cool.6 mph36%30.19 "HgN/A
11:00 PM
Fri, Apr 29
40 °FChilly.2 mph38%30.18 "HgN/A
10:00 PM43 °FQuite cool.3 mph33%30.16 "HgN/A
9:00 PM45 °FCool.3 mph35%30.15 "HgN/A
8:00 PM47 °FCool.3 mph27%30.13 "HgN/A
7:00 PM49 °FCool.2 mph26%30.12 "HgN/A
6:00 PM50 °FCool.6 mph28%30.12 "HgN/A
5:00 PM50 °FCool.6 mph25%30.12 "HgN/A
4:00 PM49 °FCool.6 mph29%30.12 "HgN/A
3:00 PM47 °FCool.8 mph32%30.13 "HgN/A
Weather by CustomWeather, © 2016

See weather overviewHow to use our weather pages